Location: Albuquerque Trailhead
(34.7934°N, 106.3736°W)
Time: 20:10:10
(UTC+00:00)

NOAA 19 - Pass Details

Date: 09 April 2023
Orbit: 840 x 859 km, 99.1° (Epoch: 31 May)

Event Time Altitude Azimuth Distance (km) Brightness Sun altitude
Exits shadow 03:11:31 17° 172° (S) 2,010 6.9 -20.3°
Maximum altitude 03:15:49 76° 257° (WSW) 871 5.3 -21.0°
Drops below altitude 10° 03:21:16 10° 343° (NNW) 2,464 8.2 -22.0°
Sets 03:23:39 0° 345° (NNW) 3,401 9.0 -22.5°
